Location: ??????
(55.7522°N, 37.6156°E)
Time: 17:41:58
(UTC+00:00)

PSLV R/B - Pass Details

Date: 14 June 2025
Orbit: 588 x 682 km, 97.9° (Epoch: 13 July)

Event Time Altitude Azimuth Distance (km) Brightness Sun altitude
Rises 20:51:17 0° 18° (NNE) 2,867 8.2 -10.5°
Reaches altitude 10° 20:53:31 10° 25° (NNE) 1,971 7.1 -10.6°
Maximum altitude 20:57:39 47° 100° (E) 822 4.1 -10.6°
Enters shadow 21:01:03 15° 171° (S) 1,694 5.1 -10.7°
